Wind_Speed
16 15 14 14 14 14 14 14 13 12 13 13 14 13 13 13 13 14 15 15 15 15 15 15 16 16 16 16 17 16 16 16 16 16 17 18 18 18 18 19 19 20 20
18 18 17 18 19 18 17 16 16 15 15 15 16 15 15 15 15 16 16 16 17 17 17 17 17 16 16 17 17 17 17 18 18 18 19 19 20 20 20 20 20 20 21
21 20 19 20 21 21 21 20 19 18 18 18 18 18 18 18 18 18 18 18 18 18 18 19 19 19 19 19 18 19 19 20 20 20 21 21 21 22 22 22 23 23 23
22 21 21 21 22 24 24 23 23 21 21 20 20 20 20 21 21 21 21 21 20 20 20 21 21 21 20 20 19 19 20 21 22 22 22 22 23 24 24 24 25 25 25
23 23 23 23 23 24 25 25 24 23 22 22 21 21 22 22 23 23 24 23 23 23 23 23 23 22 22 22 22 22 22 22 23 24 24 24 24 25 25 26 26 26 27
26 26 26 27 26 26 26 26 26 25 24 23 23 24 24 24 25 25 25 25 25 25 25 25 24 24 24 24 24 24 24 24 24 25 26 26 26 26 27 28 28 28 28
29 29 28 29 28 28 27 27 27 27 26 26 26 26 26 25 25 26 26 27 27 27 27 27 27 26 26 26 26 26 26 26 26 26 27 28 28 28 29 29 29 30 30
30 30 30 30 30 30 29 29 30 30 30 30 29 28 28 28 28 27 28 28 28 28 27 28 28 29 29 29 29 29 29 29 29 28 28 29 30 30 29 30 30 31 31
31 30 30 31 31 32 32 32 32 32 32 32 32 31 30 30 31 30 30 29 29 28 28 29 30 30 31 32 32 32 32 32 32 31 30 30 30 30 30 30 30 31 31
33 33 32 32 32 32 34 34 34 33 33 33 33 33 33 32 32 32 32 31 30 30 30 31 32 33 33 34 33 32 32 33 33 33 32 32 31 31 31 31 32 32 32
35 34 34 34 34 35 35 35 35 34 35 34 34 34 34 33 33 33 34 33 32 31 32 33 34 35 35 35 34 33 32 33 34 34 33 32 32 32 32 32 33 33 33
36 37 37 37 38 38 37 36 37 36 36 35 35 35 36 36 35 34 35 35 35 34 34 34 34 35 35 35 34 34 34 34 34 34 34 33 33 33 33 33 34 34 35
38 38 39 38 39 39 38 37 36 36 37 37 37 36 37 37 36 36 36 36 35 35 35 35 35 35 34 34 34 34 34 34 34 35 35 35 36 36 36 35 35 35 36
40 39 38 38 38 38 38 37 37 37 38 38 37 37 38 37 37 37 36 36 36 35 35 35 34 35 34 34 34 33 34 34 35 36 36 37 37 37 37 37 37 37 37
41 41 39 39 37 37 36 37 38 38 39 38 37 38 38 37 37 37 36 36 35 35 35 35 35 35 35 35 35 35 36 36 36 37 38 38 38 38 38 38 38 39 39
40 40 39 38 37 37 38 38 38 38 37 38 37 36 37 37 37 37 37 36 36 36 36 36 36 36 36 36 37 37 37 37 37 38 38 38 38 38 39 40 40 40 40
38 37 37 37 38 38 37 37 37 37 37 37 37 37 36 37 37 36 36 35 36 36 36 36 36 37 37 38 38 38 38 39 39 39 39 39 39 39 39 39 39 39 39
35 36 36 36 35 35 36 36 35 35 36 36 36 36 36 36 37 36 36 36 36 36 35 35 36 37 37 38 38 39 40 40 40 40 39 39 38 38 39 39 40 40 40
33 34 34 34 35 35 35 34 35 34 35 36 36 36 36 37 37 36 37 37 37 36 36 36 37 37 38 38 39 39 39 39 39 39 38 38 39 38 38 38 39 39 40
31 31 32 32 33 33 32 33 34 34 34 35 35 35 36 36 36 36 36 37 37 38 38 38 38 39 39 39 39 39 39 38 38 38 38 39 39 39 39 39 39 40 40
29 30 30 30 30 31 31 32 32 33 33 33 33 34 34 35 35 36 36 37 38 38 39 39 39 38 38 38 38 38 37 37 37 37 38 39 38 38 39 39 38 38 38
28 28 29 29 29 29 29 30 30 29 30 30 30 31 32 33 34 35 35 35 36 36 36 36 36 36 36 36 36 36 36 35 35 36 36 37 37 37 37 36 36 36 36
27 27 27 27 27 28 28 28 28 28 29 30 30 30 31 32 32 33 33 33 33 34 34 34 33 33 33 34 34 34 34 34 34 34 35 35 35 34 35 35 36 36 35
25 25 24 25 25 27 27 27 27 27 28 28 28 28 28 29 30 30 30 31 31 31 31 31 31 32 32 32 32 32 32 33 33 34 34 34 34 34 34 35 35 35 35
22 23 23 23 24 24 25 25 25 25 25 25 25 25 25 26 26 27 27 28 28 29 29 30 30 30 31 31 31 32 32 32 33 33 34 34 35 35 35 35 35 34 35
21 22 22 22 21 22 22 22 22 22 22 22 23 23 23 23 24 25 25 26 26 27 28 28 29 29 30 31 31 31 32 32 33 33 33 33 34 34 34 34 34 34 35
Wind_Direction
273 274 271 272 276 281 282 285 285 280 282 286 285 288 290 291 290 286 283 280 282 282 282 282 280 281 281 279 277 275 276 276 275 275 279 281 283 281 281 283 283 282 281
271 271 270 272 273 274 278 280 282 280 279 282 284 286 288 289 289 286 285 282 282 282 281 282 283 281 281 282 279 277 276 276 275 275 276 278 280 281 281 283 284 284 282
270 271 271 271 271 270 273 274 276 277 277 278 279 282 285 286 286 285 284 283 282 282 282 282 282 280 280 280 279 279 278 278 278 277 275 276 277 279 279 281 282 282 281
272 270 271 270 269 270 272 274 276 275 272 273 275 277 280 283 285 284 283 283 282 283 284 284 285 282 279 279 281 282 281 279 278 278 278 278 278 279 279 280 281 281 280
272 273 271 270 270 273 275 275 275 272 271 273 274 275 276 278 282 283 281 281 281 281 282 282 281 281 280 279 279 280 281 281 281 280 280 279 280 280 280 280 280 281 280
274 275 275 273 272 275 276 274 272 271 272 272 273 275 275 276 279 282 280 278 279 280 280 280 279 278 278 278 280 280 281 281 282 283 283 281 280 281 281 279 278 279 280
277 276 278 274 275 278 277 275 273 270 271 272 272 275 276 277 279 281 280 277 277 279 278 278 279 279 277 278 279 279 279 280 281 282 281 281 281 283 282 280 279 279 279
277 276 277 275 274 274 277 273 273 273 272 272 272 274 276 275 276 279 281 279 277 278 278 278 278 278 278 277 278 278 279 279 280 281 281 281 280 281 282 283 282 281 281
279 280 279 277 275 276 275 272 272 272 272 273 274 276 275 273 274 277 277 277 276 277 277 277 277 278 276 277 277 278 278 279 278 280 280 281 281 282 282 283 283 283 282
278 279 279 278 278 277 274 272 272 273 273 274 276 276 276 272 272 274 275 274 275 276 276 276 276 276 278 278 276 276 277 278 278 279 279 280 281 282 282 283 282 282 283
276 277 278 278 278 277 274 273 272 272 272 273 275 274 274 273 272 273 273 274 274 275 276 276 277 277 278 278 276 276 277 279 279 279 278 278 281 282 283 282 282 282 283
276 276 277 276 275 276 276 273 271 271 271 272 273 273 272 271 271 270 271 273 273 274 275 276 278 278 277 277 276 276 276 278 278 277 278 278 279 280 282 282 282 282 282
276 276 276 275 275 274 274 273 273 273 272 272 272 272 272 272 271 270 271 272 272 273 273 275 276 277 276 275 276 277 277 277 277 277 277 278 279 280 281 281 282 282 283
275 275 274 274 275 274 273 272 273 273 274 271 270 272 272 272 271 271 271 271 271 272 273 274 274 274 276 276 276 276 277 278 277 278 278 278 279 280 281 281 281 281 282
276 276 275 276 273 274 273 273 273 273 274 273 272 272 272 271 271 271 270 270 271 272 273 274 274 274 274 275 276 277 278 279 278 278 279 279 279 279 280 280 280 281 281
275 275 275 274 273 273 272 270 271 272 273 274 273 272 272 272 272 272 271 270 270 272 273 273 272 273 273 274 275 277 278 278 279 279 279 280 280 281 280 281 282 281 281
272 273 274 275 274 273 271 270 270 270 271 272 272 272 272 272 272 272 272 273 273 273 273 273 273 273 273 274 275 276 277 278 278 278 279 280 281 281 281 281 281 281 281
272 273 274 275 275 273 271 270 270 270 270 271 273 273 273 273 272 271 271 272 272 273 274 274 275 275 274 274 276 277 277 278 278 279 279 280 280 280 279 280 280 280 281
273 274 274 275 274 274 273 270 269 269 270 271 272 272 272 271 271 271 271 272 272 273 273 273 274 275 276 276 279 279 279 279 279 279 279 279 280 280 280 280 280 280 282
274 275 276 275 274 274 273 272 270 271 270 271 271 270 271 271 270 270 270 272 273 273 273 274 274 275 276 277 278 278 279 279 280 280 279 279 280 280 280 281 281 282 283
275 276 277 276 274 274 275 274 274 273 273 272 271 270 271 270 270 270 271 273 273 274 275 275 275 275 276 277 278 278 279 279 280 280 279 279 280 280 280 280 281 282 283
275 276 278 278 277 277 277 277 276 274 274 273 272 272 273 272 272 273 273 273 274 274 275 275 275 275 275 276 277 278 278 279 279 280 280 281 281 281 280 280 281 283 285
277 278 279 279 278 278 278 277 276 276 276 274 274 275 275 275 275 276 277 277 277 277 277 277 277 278 277 278 278 278 279 280 280 280 281 281 281 281 281 282 283 283 285
279 279 280 279 279 278 278 278 277 278 277 276 276 277 277 278 280 280 280 279 279 280 280 279 279 279 279 279 280 280 280 281 281 281 281 281 281 281 283 284 284 284 285
279 279 281 281 280 280 281 281 279 279 277 276 277 277 278 279 280 280 279 279 280 281 280 280 280 280 279 279 280 280 280 281 281 282 282 282 282 283 283 284 284 284 285
280 281 281 282 283 282 281 281 281 279 277 277 278 278 279 280 282 283 283 283 283 282 282 282 282 281 280 280 280 280 281 281 282 282 282 282 282 283 284 285 285 285 286
Height
5873 5872 5873 5873 5872 5872 5871 5871 5870 5870 5869 5869 5868 5867 5866 5865 5864 5863 5863 5862 5861 5860 5859 5858 5857 5856 5856 5855 5855 5854 5853 5853 5853 5853 5852 5851 5850 5849 5849 5848 5847 5846 5845
5869 5868 5868 5869 5868 5868 5867 5867 5866 5866 5865 5865 5864 5864 5863 5862 5861 5859 5859 5858 5857 5856 5855 5854 5853 5852 5852 5851 5850 5849 5849 5849 5848 5848 5847 5846 5845 5844 5843 5842 5841 5840 5839
5863 5863 5863 5863 5863 5862 5862 5862 5861 5861 5861 5860 5860 5859 5858 5858 5857 5856 5854 5853 5852 5851 5850 5849 5848 5848 5847 5846 5845 5844 5844 5843 5843 5842 5841 5840 5839 5839 5838 5837 5835 5834 5833
5857 5857 5857 5857 5857 5856 5856 5855 5855 5854 5855 5855 5854 5853 5853 5852 5851 5851 5850 5849 5847 5846 5845 5844 5843 5842 5842 5841 5840 5839 5838 5837 5837 5836 5835 5834 5833 5832 5831 5830 5829 5828 5827
5851 5851 5851 5851 5850 5850 5850 5849 5848 5848 5848 5848 5848 5847 5846 5846 5845 5844 5843 5842 5841 5840 5839 5838 5837 5836 5836 5835 5834 5833 5832 5831 5830 5829 5829 5827 5826 5825 5824 5823 5822 5821 5819
5844 5843 5843 5843 5843 5842 5842 5842 5841 5842 5841 5841 5841 5840 5840 5839 5838 5837 5836 5835 5834 5833 5833 5832 5831 5830 5829 5828 5828 5827 5826 5825 5823 5822 5821 5820 5819 5818 5816 5815 5814 5813 5812
5837 5837 5836 5836 5835 5834 5833 5834 5834 5833 5833 5833 5833 5833 5833 5832 5831 5830 5829 5828 5827 5827 5826 5825 5824 5823 5821 5821 5820 5819 5819 5817 5816 5815 5814 5813 5811 5810 5808 5807 5805 5804 5803
5829 5829 5828 5827 5826 5826 5826 5826 5826 5825 5825 5825 5824 5824 5824 5824 5823 5822 5821 5820 5819 5819 5818 5817 5816 5815 5814 5813 5812 5811 5810 5809 5808 5807 5805 5804 5803 5801 5799 5798 5797 5796 5795
5820 5820 5819 5818 5817 5816 5817 5817 5817 5817 5816 5815 5815 5815 5815 5815 5815 5814 5813 5812 5811 5810 5810 5809 5808 5807 5806 5804 5803 5803 5802 5801 5799 5798 5797 5795 5794 5792 5790 5789 5788 5786 5785
5811 5811 5810 5810 5808 5807 5807 5807 5807 5807 5807 5807 5806 5806 5806 5806 5805 5804 5803 5803 5802 5802 5801 5800 5799 5798 5797 5795 5794 5793 5793 5792 5790 5789 5788 5787 5785 5783 5782 5780 5779 5777 5776
5802 5801 5801 5800 5799 5797 5796 5796 5796 5797 5797 5797 5797 5797 5796 5796 5795 5795 5794 5794 5793 5792 5791 5791 5789 5788 5787 5786 5784 5784 5783 5782 5781 5780 5779 5777 5776 5774 5773 5771 5769 5768 5767
5791 5791 5790 5789 5788 5788 5787 5786 5786 5786 5786 5787 5787 5786 5786 5785 5785 5784 5784 5783 5783 5782 5782 5781 5779 5778 5777 5776 5774 5774 5773 5772 5771 5770 5769 5768 5766 5765 5763 5761 5759 5758 5757
5780 5780 5779 5778 5777 5776 5776 5776 5776 5776 5775 5776 5775 5775 5774 5774 5773 5773 5773 5772 5771 5771 5771 5770 5769 5768 5766 5765 5765 5764 5763 5762 5760 5760 5759 5757 5756 5754 5753 5751 5749 5748 5747
5767 5767 5766 5766 5765 5765 5764 5765 5765 5765 5764 5764 5763 5763 5763 5762 5762 5762 5761 5761 5760 5760 5760 5759 5758 5757 5756 5755 5755 5753 5752 5751 5750 5749 5748 5747 5745 5743 5741 5740 5738 5737 5736
5755 5754 5754 5754 5754 5753 5753 5753 5753 5753 5752 5752 5751 5751 5751 5751 5751 5750 5750 5750 5749 5749 5748 5748 5747 5747 5746 5745 5744 5743 5742 5740 5739 5738 5737 5735 5734 5732 5730 5729 5727 5726 5724
5742 5742 5741 5741 5742 5742 5742 5742 5742 5741 5741 5740 5739 5739 5739 5739 5739 5739 5739 5738 5738 5737 5737 5736 5736 5735 5735 5734 5733 5732 5731 5729 5728 5726 5725 5724 5722 5721 5719 5717 5715 5714 5712
5729 5729 5729 5729 5729 5729 5729 5730 5730 5730 5729 5729 5729 5728 5728 5727 5727 5727 5727 5727 5726 5726 5726 5725 5724 5723 5723 5722 5721 5720 5718 5717 5716 5715 5713 5712 5710 5708 5707 5705 5703 5701 5700
5718 5718 5717 5717 5717 5716 5717 5717 5717 5718 5718 5717 5717 5716 5716 5716 5715 5715 5715 5715 5715 5715 5714 5713 5712 5711 5711 5710 5709 5707 5706 5705 5704 5702 5701 5699 5698 5696 5694 5693 5691 5689 5688
5707 5707 5706 5706 5706 5705 5705 5704 5705 5705 5706 5706 5705 5705 5704 5704 5704 5704 5704 5704 5704 5703 5702 5701 5701 5700 5699 5698 5697 5695 5694 5692 5691 5689 5688 5687 5686 5684 5682 5681 5679 5677 5676
5696 5696 5695 5694 5694 5694 5694 5693 5693 5694 5694 5693 5693 5693 5693 5693 5692 5692 5692 5692 5691 5690 5689 5689 5688 5687 5686 5685 5684 5682 5681 5680 5679 5677 5676 5675 5673 5672 5670 5669 5667 5665 5663
5686 5686 5685 5684 5684 5684 5683 5683 5683 5683 5683 5682 5682 5682 5682 5681 5681 5680 5680 5680 5679 5678 5677 5676 5676 5675 5674 5672 5671 5670 5669 5668 5667 5665 5664 5663 5661 5660 5659 5657 5655 5653 5651
5677 5676 5675 5674 5674 5674 5673 5673 5673 5672 5672 5672 5671 5671 5670 5670 5670 5669 5668 5668 5667 5666 5665 5664 5663 5662 5661 5660 5659 5658 5657 5656 5655 5653 5652 5651 5650 5648 5647 5645 5643 5642 5640
5667 5667 5666 5665 5665 5664 5664 5664 5663 5663 5662 5662 5661 5661 5660 5659 5659 5658 5657 5657 5656 5655 5653 5652 5652 5651 5649 5648 5647 5646 5645 5644 5643 5642 5641 5640 5638 5637 5635 5634 5632 5630 5628
5659 5658 5657 5657 5656 5656 5655 5655 5654 5653 5652 5651 5651 5650 5650 5649 5648 5647 5646 5646 5645 5644 5643 5642 5640 5640 5638 5637 5636 5635 5634 5633 5632 5631 5630 5629 5627 5626 5624 5622 5621 5619 5617
5651 5651 5650 5649 5649 5648 5647 5646 5645 5644 5643 5642 5641 5641 5640 5639 5638 5637 5636 5635 5634 5633 5632 5631 5630 5629 5628 5626 5625 5624 5623 5622 5621 5620 5618 5617 5616 5615 5613 5612 5610 5608 5606
5645 5644 5643 5642 5642 5641 5640 5638 5637 5636 5635 5634 5633 5632 5632 5631 5630 5629 5627 5626 5625 5623 5622 5620 5619 5618 5616 5616 5615 5614 5613 5612 5610 5609 5607 5606 5604 5603 5602 5600 5599 5597 5595